Hourly Weather Chadian

Today, 13 June, Sunday

Time Temperature Precipitation Wind Pressure Humidity
00:00 +22°C° 1.1 mm 0 mps 707 mmHg 95%
01:00 +22°C° 0 mm 0 mps 707 mmHg 95%
02:00 +22°C° 0.1 mm 0 mps 707 mmHg 95%
03:00 +22°C° 0.1 mm 0 mps 707 mmHg 95%
04:00 +22°C° 0.1 mm 0 mps 707 mmHg 96%
05:00 +23°C° 0 mm 0 mps 707 mmHg 93%
06:00 +25°C° 0 mm 1 mps 707 mmHg 90%
07:00 +26°C° 0 mm 1 mps 707 mmHg 88%
08:00 +28°C° 0 mm 2 mps 707 mmHg 81%
09:00 +29°C° 0 mm 2 mps 707 mmHg 74%
10:00 +31°C° 0 mm 2 mps 707 mmHg 67%
11:00 +31°C° 0.4 mm 3 mps 706 mmHg 68%
12:00 +31°C° 0.4 mm 3 mps 706 mmHg 69%
13:00 +31°C° 0 mm 3 mps 705 mmHg 71%
14:00 +31°C° 0.6 mm 3 mps 705 mmHg 70%
15:00 +31°C° 0.6 mm 2 mps 704 mmHg 70%
16:00 +31°C° 0.6 mm 2 mps 704 mmHg 70%
17:00 +30°C° 0.4 mm 2 mps 704 mmHg 75%
18:00 +28°C° 0.4 mm 1 mps 704 mmHg 80%
19:00 +27°C° 0.4 mm 1 mps 704 mmHg 86%
20:00 +26°C° 0 mm 1 mps 704 mmHg 87%
21:00 +26°C° 0 mm 1 mps 705 mmHg 89%
22:00 +25°C° 0 mm 1 mps 705 mmHg 90%
23:00 +25°C° 0 mm 1 mps 705 mmHg 91%

Tomorrow, 14 June, Monday

Time Temperature Precipitation Wind Pressure Humidity
00:00 +25°C° 0 mm 1 mps 704 mmHg 91%
01:00 +24°C° 0 mm 1 mps 704 mmHg 92%
02:00 +24°C° 0 mm 1 mps 704 mmHg 93%
03:00 +24°C° 0 mm 1 mps 704 mmHg 93%
04:00 +24°C° 0 mm 1 mps 704 mmHg 94%
05:00 +25°C° 0 mm 1 mps 704 mmHg 91%
06:00 +25°C° 0 mm 1 mps 704 mmHg 88%
07:00 +26°C° 0 mm 1 mps 704 mmHg 86%
08:00 +28°C° 0 mm 2 mps 704 mmHg 79%
09:00 +29°C° 0 mm 3 mps 704 mmHg 72%
10:00 +31°C° 0 mm 3 mps 704 mmHg 65%
11:00 +31°C° 0 mm 3 mps 704 mmHg 64%
12:00 +33°C° 0 mm 3 mps 703 mmHg 62%
13:00 +33°C° 0 mm 3 mps 703 mmHg 61%
14:00 +33°C° 0 mm 3 mps 702 mmHg 63%
15:00 +33°C° 0 mm 3 mps 702 mmHg 65%
16:00 +33°C° 0 mm 3 mps 701 mmHg 67%
17:00 +30°C° 0.1 mm 2 mps 701 mmHg 72%
18:00 +29°C° 0.1 mm 2 mps 701 mmHg 78%
19:00 +27°C° 0.1 mm 2 mps 701 mmHg 84%
20:00 +26°C° 0 mm 1 mps 702 mmHg 86%
21:00 +26°C° 0 mm 1 mps 702 mmHg 88%
22:00 +25°C° 0 mm 1 mps 702 mmHg 90%
23:00 +25°C° 0 mm 1 mps 702 mmHg 91%

Day after tomorrow, 15 June, Tuesday

Time Temperature Precipitation Wind Pressure Humidity
00:00 +25°C° 0 mm 1 mps 702 mmHg 92%
01:00 +24°C° 0 mm 1 mps 701 mmHg 93%
02:00 +24°C° 0 mm 1 mps 701 mmHg 93%
03:00 +24°C° 0 mm 1 mps 701 mmHg 94%
04:00 +24°C° 0 mm 1 mps 701 mmHg 95%
05:00 +25°C° 0 mm 1 mps 702 mmHg 92%
06:00 +26°C° 0 mm 1 mps 702 mmHg 88%
07:00 +27°C° 0 mm 1 mps 703 mmHg 85%
08:00 +28°C° 0.1 mm 1 mps 703 mmHg 80%
09:00 +29°C° 0.1 mm 2 mps 703 mmHg 75%
10:00 +30°C° 0.1 mm 3 mps 703 mmHg 70%
11:00 +31°C° 0.2 mm 3 mps 702 mmHg 68%
12:00 +31°C° 0.2 mm 3 mps 702 mmHg 66%
13:00 +33°C° 0.2 mm 3 mps 702 mmHg 65%
14:00 +33°C° 0.1 mm 3 mps 701 mmHg 65%
15:00 +33°C° 0.1 mm 3 mps 701 mmHg 66%
16:00 +33°C° 0.1 mm 3 mps 701 mmHg 67%
17:00 +30°C° 0.1 mm 2 mps 701 mmHg 72%
18:00 +29°C° 0.1 mm 2 mps 701 mmHg 78%
19:00 +27°C° 0.1 mm 1 mps 701 mmHg 84%
20:00 +27°C° 0 mm 1 mps 702 mmHg 86%
21:00 +26°C° 0 mm 1 mps 702 mmHg 88%
22:00 +26°C° 0 mm 1 mps 703 mmHg 90%
23:00 +25°C° 0 mm 1 mps 702 mmHg 91%

16 June, Wednesday

Time Temperature Precipitation Wind Pressure Humidity
00:00 +25°C° 0 mm 1 mps 702 mmHg 93%
01:00 +25°C° 0 mm 1 mps 702 mmHg 94%
02:00 +25°C° 0 mm 1 mps 702 mmHg 95%
03:00 +24°C° 0 mm 1 mps 702 mmHg 95%
04:00 +24°C° 0 mm 1 mps 702 mmHg 96%
05:00 +25°C° 0 mm 1 mps 703 mmHg 92%
06:00 +26°C° 0 mm 1 mps 703 mmHg 89%
07:00 +27°C° 0 mm 1 mps 704 mmHg 85%
08:00 +29°C° 0 mm 1 mps 704 mmHg 79%
09:00 +30°C° 0 mm 2 mps 704 mmHg 73%
10:00 +31°C° 0 mm 2 mps 704 mmHg 67%
11:00 +32°C° 0.2 mm 2 mps 704 mmHg 66%
12:00 +33°C° 0.2 mm 3 mps 703 mmHg 65%
13:00 +34°C° 0.2 mm 3 mps 703 mmHg 64%
14:00 +34°C° 0.4 mm 3 mps 703 mmHg 65%
15:00 +33°C° 0.4 mm 3 mps 702 mmHg 67%
16:00 +32°C° 0.4 mm 2 mps 702 mmHg 69%
17:00 +31°C° 0.1 mm 2 mps 702 mmHg 74%
18:00 +29°C° 0.1 mm 1 mps 702 mmHg 79%
19:00 +28°C° 0.1 mm 1 mps 702 mmHg 84%
20:00 +27°C° 0 mm 1 mps 703 mmHg 86%
21:00 +27°C° 0 mm 1 mps 703 mmHg 88%
22:00 +26°C° 0 mm 1 mps 704 mmHg 90%
23:00 +26°C° 0 mm 1 mps 703 mmHg 91%

17 June, Thursday

Time Temperature Precipitation Wind Pressure Humidity
00:00 +26°C° 0 mm 1 mps 703 mmHg 92%
01:00 +25°C° 0 mm 1 mps 703 mmHg 94%
02:00 +25°C° 0 mm 1 mps 703 mmHg 95%
03:00 +25°C° 0 mm 1 mps 703 mmHg 95%
04:00 +25°C° 0 mm 1 mps 703 mmHg 96%
05:00 +26°C° 0 mm 1 mps 704 mmHg 93%
06:00 +27°C° 0 mm 1 mps 704 mmHg 89%
07:00 +28°C° 0 mm 1 mps 704 mmHg 86%
08:00 +29°C° 0.1 mm 1 mps 704 mmHg 80%
09:00 +30°C° 0.1 mm 2 mps 704 mmHg 74%
10:00 +32°C° 0.1 mm 2 mps 704 mmHg 68%
11:00 +32°C° 0.2 mm 2 mps 704 mmHg 68%
12:00 +33°C° 0.2 mm 3 mps 704 mmHg 68%
13:00 +33°C° 0.2 mm 3 mps 703 mmHg 68%
14:00 +33°C° 0.3 mm 3 mps 703 mmHg 68%
15:00 +32°C° 0.3 mm 2 mps 703 mmHg 68%
16:00 +34°C° 0.3 mm 2 mps 702 mmHg 69%
17:00 +31°C° 0.4 mm 2 mps 703 mmHg 75%
18:00 +29°C° 0.4 mm 1 mps 703 mmHg 80%
19:00 +28°C° 0.4 mm 1 mps 703 mmHg 86%
20:00 +27°C° 0.2 mm 1 mps 703 mmHg 89%
21:00 +27°C° 0.2 mm 1 mps 704 mmHg 91%
22:00 +26°C° 0.2 mm 1 mps 704 mmHg 93%
23:00 +26°C° 0.5 mm 1 mps 704 mmHg 94%

18 June, Friday

Time Temperature Precipitation Wind Pressure Humidity
00:00 +26°C° 0.5 mm 1 mps 703 mmHg 95%
01:00 +25°C° 0.5 mm 1 mps 703 mmHg 96%
02:00 +25°C° 0.4 mm 1 mps 703 mmHg 96%
03:00 +25°C° 0.4 mm 1 mps 703 mmHg 96%
04:00 +23°C° 0.4 mm 0 mps 703 mmHg 97%
05:00 +24°C° 0 mm 0 mps 704 mmHg 94%
06:00 +25°C° 0 mm 0 mps 704 mmHg 92%
07:00 +25°C° 0 mm 0 mps 704 mmHg 89%
08:00 +29°C° 0.6 mm 1 mps 704 mmHg 85%
09:00 +30°C° 0.6 mm 1 mps 704 mmHg 80%
10:00 +31°C° 0.6 mm 2 mps 704 mmHg 76%
11:00 +31°C° 1 mm 2 mps 703 mmHg 74%
12:00 +32°C° 1 mm 2 mps 703 mmHg 73%
13:00 +32°C° 1 mm 2 mps 703 mmHg 71%
14:00 +32°C° 0.7 mm 2 mps 702 mmHg 72%
15:00 +32°C° 0.7 mm 2 mps 702 mmHg 73%
16:00 +32°C° 0.7 mm 1 mps 702 mmHg 73%
17:00 +31°C° 1 mm 1 mps 702 mmHg 78%
18:00 +29°C° 1 mm 1 mps 702 mmHg 83%
19:00 +28°C° 1 mm 1 mps 702 mmHg 88%
20:00 +27°C° 1.8 mm 1 mps 703 mmHg 91%
21:00 +26°C° 1.8 mm 1 mps 703 mmHg 94%
22:00 +25°C° 1.8 mm 1 mps 703 mmHg 97%
23:00 +25°C° 0.6 mm 1 mps 703 mmHg 97%
Show more

We Need Your Consent

Meteoprog and our Service Providers may store and access personal data such as cookies, device identifiers or other similar technologies on your device and process such data to personalise content and ads, as well as provide social media features and to analyse the traffic.

  • Store and/or access information on your device

    Cookies, device identifiers or other information can be stored or accessed on your device for the purposes indicated above.

  • Personalised ads and content, ad and content measurement, audience insights, and products development

    Ads and content can be personalised based on a profile. More data can be added to better personalise ads and content. Ad and content performance can be measured. Insights about the audience who saw the ads and content can be derived. Such data can be used to develop or improve user’s experience, systems and software.

By clicking ‘I Agree’ you will allow the use of indicated cookies, device identifiers, web beacons or other similar technologies. Your settings can be changed in the browser on your device.

For certain purposes, legitimate interests may be relied on, rather than consent. You can read more about this in our Privacy and Cookie Policy.